[[{"header":{"parameterUnit":"m.s-1","parameterCategory":1,"la1":30.2991,"la2":30.254,"lo1":-89.0895,"lo2":-89.0444,"dy":0.0017,"dx":0.0017,"nx":28,"ny":28,"refTime":"2023-07-24T03:00:00:Z","depth":0,"parameterNumber":2,"parameterNumberName":"U-component_of_WINDS"},"data":[0,0,0,0,0,0,0,0,0,0,0,0,0,0,0,0,0,0,0,0,0,0,0,0,0,0,0,0,0,0,0,0,0,0,0,0,0,0,0,0,0,0,0,0,0,0,0,0,0,0,0,0,0,0,0,0,0,0,-0.089,-0.0889,0,-0.0742,-0.074,-0.0738,-0.0642,-0.0642,-0.0641,-0.0641,-0.0489,-0.0486,-0.0483,0,0,0,0,0,0,0,0,0,0,0,0,0,-0.1094,-0.1091,-0.0891,-0.0889,-0.0887,-0.0742,-0.074,-0.0738,-0.0642,-0.0642,-0.0641,-0.064,-0.0491,-0.0486,-0.0482,0,0,0,0,0,0,0,0,0,0,0,0,0,-0.0982,-0.109,-0.0891,-0.0822,-0.0814,-0.0742,-0.074,-0.0737,-0.0643,-0.0642,-0.0641,-0.064,-0.0492,-0.0487,-0.0482,-0.0467,0,0,-0.0466,-0.0464,0,0,0,0,0,0,0,0,-0.0988,-0.0974,-0.0834,-0.0826,-0.0818,-0.071,-0.0756,-0.0647,-0.0643,-0.0708,-0.0641,-0.064,-0.0563,-0.0552,-0.0526,-0.046,-0.0454,-0.0465,-0.0462,-0.046,-0.0458,0,0,0,0,0,0,0,-0.0996,-0.098,-0.0832,-0.0832,-0.0822,-0.0799,-0.0782,-0.0735,-0.0642,-0.0702,-0.0695,-0.0678,-0.0559,-0.0532,-0.0522,-0.0451,-0.0465,-0.0461,-0.0458,-0.0456,-0.0367,-0.0367,0,0,0,0,0,0,-0.1015,-0.0987,-0.0836,-0.0827,-0.0902,-0.0796,-0.0777,-0.0745,-0.0643,-0.0626,-0.0679,-0.0674,-0.0541,-0.0528,-0.0516,-0.0493,-0.046,-0.0455,-0.0452,-0.0366,-0.0367,-0.0368,0,0,0,0,0,0,-0.1019,-0.1002,-0.0842,-0.0905,-0.0883,-0.0793,-0.0759,-0.0743,-0.0715,-0.0625,-0.0609,-0.0668,-0.054,-0.0524,-0.048,-0.0486,-0.0453,-0.0448,-0.0365,-0.0366,-0.0367,-0.0446,0,0,0,0,0,0,-0.1026,-0.1004,-0.0997,-0.0906,-0.088,-0.0808,-0.0759,-0.074,-0.0706,-0.0699,-0.0611,-0.0595,-0.0538,-0.0489,-0.0475,-0.0479,-0.0444,-0.0364,-0.0365,-0.0367,-0.0443,-0.045,-0.0456,0,0,0,0,0,-0.1033,-0.1026,-0.0998,-0.098,-0.087,-0.0809,-0.0794,-0.0728,-0.0707,-0.07,-0.0642,-0.0598,-0.0488,-0.0485,-0.0469,-0.0471,-0.0363,-0.0365,-0.0367,-0.044,-0.0448,-0.0456,0,0,0,0,0,0,-0.1121,-0.1013,-0.098,-0.0943,-0.0886,-0.0793,-0.0781,-0.0739,-0.0688,-0.0683,-0.0603,-0.0584,-0.0549,-0.0505,-0.0504,-0.0452,-0.042,-0.0419,-0.0481,-0.0489,-0.0496,-0.0507,-0.044,0,0,0,0,0,-0.1136,-0.1095,-0.1003,-0.0979,-0.0952,-0.0872,-0.0843,-0.0797,-0.0735,-0.0711,-0.065,-0.0592,-0.0544,-0.0514,-0.0465,-0.0436,-0.0416,-0.043,-0.0436,-0.0442,-0.0442,-0.0424,-0.0429,-0.0373,-0.0373,-0.0373,0,0,-0.1167,-0.1102,-0.1082,-0.0995,-0.0945,-0.0906,-0.0852,-0.0812,-0.0782,-0.0704,-0.066,-0.0613,-0.0543,-0.0507,-0.0488,-0.047,-0.0453,-0.0445,-0.045,-0.0446,-0.0426,-0.0432,-0.0437,-0.0374,-0.0374,-0.0374,0,0,-0.1202,-0.1149,-0.1124,-0.1075,-0.1001,-0.0947,-0.0942,-0.0855,-0.0821,-0.0775,-0.0716,-0.0679,-0.0598,-0.0551,-0.0516,-0.0535,-0.0492,-0.0521,-0.0557,-0.054,-0.0544,-0.0548,-0.0555,-0.0558,-0.0521,-0.0522,-0.0522,0,-0.125,-0.1187,-0.1116,-0.1079,-0.1043,-0.0971,-0.0945,-0.0901,-0.0815,-0.0792,-0.0773,-0.0671,-0.0618,-0.057,-0.0575,-0.0549,-0.054,-0.0531,-0.0549,-0.0552,-0.0554,-0.056,-0.0563,-0.0526,-0.0525,-0.0525,-0.0524,0,-0.1249,-0.1207,-0.1195,-0.1113,-0.1076,-0.1045,-0.097,-0.0941,-0.0898,-0.0848,-0.0802,-0.0737,-0.0673,-0.0659,-0.0617,-0.0605,-0.0596,-0.0564,-0.0531,-0.0565,-0.0569,-0.057,-0.0531,-0.053,-0.0529,-0.0528,0,0,-0.1336,-0.1215,-0.1212,-0.1174,-0.1087,-0.1053,-0.1019,-0.0957,-0.0934,-0.0877,-0.0847,-0.0781,-0.0751,-0.0712,-0.0664,-0.065,-0.0669,-0.0619,-0.0616,-0.0631,-0.0652,-0.0677,-0.0681,-0.064,-0.064,-0.064,-0.0658,0,-0.1358,-0.1293,-0.1228,-0.1186,-0.1146,-0.1077,-0.1048,-0.0992,-0.0944,-0.0903,-0.085,-0.0805,-0.0769,-0.0745,-0.0727,-0.067,-0.0672,-0.0668,-0.0612,-0.0611,-0.0632,-0.0682,-0.0708,-0.0728,-0.0659,-0.0659,-0.066,0,-0.1376,-0.1322,-0.1276,-0.1193,-0.1174,-0.1148,-0.1086,-0.1048,-0.0984,-0.095,-0.0907,-0.0856,-0.0818,-0.0789,-0.0735,-0.0734,-0.0707,-0.0676,-0.0675,-0.0667,-0.0637,-0.0676,-0.0733,-0.0736,-0.0661,-0.0661,-0.0661,0,-0.1444,-0.136,-0.1321,-0.1291,-0.1193,-0.1177,-0.1136,-0.107,-0.1037,-0.0983,-0.0961,-0.0904,-0.0873,-0.083,-0.0765,-0.075,-0.0719,-0.0685,-0.069,-0.0692,-0.0686,-0.0687,-0.0739,-0.0669,-0.0669,-0.0669,-0.0669,0,-0.1476,-0.1451,-0.1351,-0.1327,-0.1297,-0.1223,-0.1196,-0.1148,-0.1091,-0.1057,-0.0994,-0.0964,-0.0881,-0.0841,-0.0791,-0.0754,-0.074,-0.0712,-0.0699,-0.0718,-0.0722,-0.0699,-0.0696,-0.067,-0.0669,-0.0669,-0.0669,0,-0.1547,-0.1479,-0.1433,-0.1344,-0.1321,-0.1303,-0.1227,-0.1202,-0.115,-0.1109,-0.1095,-0.1014,-0.0964,-0.0896,-0.0825,-0.0791,-0.0761,-0.074,-0.0783,-0.0775,-0.0785,-0.0785,-0.0824,-0.0826,-0.0755,-0.0756,-0.0757,0,-0.1572,-0.1551,-0.146,-0.1433,-0.1393,-0.135,-0.1316,-0.1243,-0.1211,-0.1135,-0.112,-0.1065,-0.1017,-0.0941,-0.0876,-0.0822,-0.0799,-0.0817,-0.079,-0.081,-0.08,-0.0802,-0.08,-0.0823,-0.0824,-0.0825,-0.0826,0,-0.1624,-0.1591,-0.1544,-0.1486,-0.1447,-0.1398,-0.1345,-0.1327,-0.1243,-0.1209,-0.1157,-0.1121,-0.1048,-0.0995,-0.0932,-0.0889,-0.0844,-0.0835,-0.0833,-0.0852,-0.0878,-0.0864,-0.0801,-0.0834,-0.0833,-0.0833,-0.0832,-0.0832,-0.1673,-0.1651,-0.1584,-0.1533,-0.1486,-0.1439,-0.1411,-0.1356,-0.1311,-0.1246,-0.1206,-0.1156,-0.1092,-0.1003,-0.0963,-0.0923,-0.0905,-0.0903,-0.0902,-0.0903,-0.0909,-0.0884,-0.0911,-0.0911,-0.0911,-0.091,-0.091,0,-0.1722,-0.1675,-0.163,-0.1558,-0.1519,-0.1479,-0.142,-0.139,-0.1346,-0.129,-0.1245,-0.1185,-0.1133,-0.1065,-0.1008,-0.099,-0.0968,-0.0977,-0.0978,-0.0969,-0.0928,-0.0936,-0.0996,-0.0996,-0.0996,-0.0996,-0.0996,-0.0996,-0.1743,-0.1704,-0.1664,-0.1601,-0.1554,-0.1504,-0.1474,-0.143,-0.1385,-0.1321,-0.1278,-0.1233,-0.1172,-0.1111,-0.1061,-0.1042,-0.1025,-0.1041,-0.1016,-0.098,-0.0972,-0.0965,-0.0971,-0.1038,-0.1038,-0.106,-0.106,-0.106]},{"header":{"parameterUnit":"m.s-1","parameterCategory":1,"la1":30.2991,"la2":30.254,"lo1":-89.0895,"lo2":-89.0444,"dy":0.0017,"dx":0.0017,"nx":28,"ny":28,"refTime":"2023-07-24T03:00:00:Z","depth":0,"parameterNumber":3,"parameterNumberName":"V-component_of_WINDS"},"data":[0,0,0,0,0,0,0,0,0,0,0,0,0,0,0,0,0,0,0,0,0,0,0,0,0,0,0,0,0,0,0,0,0,0,0,0,0,0,0,0,0,0,0,0,0,0,0,0,0,0,0,0,0,0,0,0,0,0,2.6679,2.6679,0,2.6663,2.6663,2.6663,2.6667,2.6667,2.6668,2.6668,2.6649,2.6648,2.6647,0,0,0,0,0,0,0,0,0,0,0,0,0,2.6711,2.671,2.6679,2.6679,2.6679,2.6663,2.6663,2.6663,2.6667,2.6667,2.6668,2.6668,2.6649,2.6648,2.6647,0,0,0,0,0,0,0,0,0,0,0,0,0,2.6696,2.671,2.6679,2.6679,2.6679,2.6663,2.6663,2.6663,2.6667,2.6667,2.6668,2.6668,2.665,2.6648,2.6647,2.663,0,0,2.6643,2.6643,0,0,0,0,0,0,0,0,2.6697,2.6695,2.6679,2.6679,2.6679,2.6668,2.6667,2.6652,2.6667,2.6671,2.6668,2.6669,2.6655,2.6653,2.6649,2.6629,2.6628,2.6643,2.6643,2.6642,2.6642,0,0,0,0,0,0,0,2.6698,2.6696,2.6673,2.6679,2.6679,2.6679,2.6677,2.6664,2.666,2.6671,2.6671,2.667,2.6655,2.665,2.6648,2.6628,2.6643,2.6642,2.6642,2.6641,2.6593,2.6592,0,0,0,0,0,0,2.6699,2.6696,2.6673,2.6672,2.6689,2.6678,2.6676,2.6671,2.6661,2.666,2.6669,2.667,2.6652,2.665,2.6648,2.6627,2.6642,2.6641,2.664,2.6593,2.6593,2.6592,0,0,0,0,0,0,2.67,2.6697,2.6674,2.6684,2.6682,2.6677,2.6671,2.667,2.6666,2.6659,2.6658,2.6665,2.6652,2.6649,2.6634,2.6626,2.664,2.6639,2.6594,2.6593,2.6592,2.6584,0,0,0,0,0,0,2.6701,2.6698,2.6692,2.6684,2.6681,2.6662,2.667,2.6669,2.6664,2.6665,2.6655,2.6654,2.6652,2.6636,2.6633,2.6625,2.6638,2.6595,2.6594,2.6593,2.6585,2.6583,2.6582,0,0,0,0,0,2.6702,2.6689,2.6691,2.6688,2.6673,2.6661,2.6659,2.6658,2.6663,2.6657,2.6653,2.6655,2.6628,2.6635,2.6631,2.6622,2.6595,2.6594,2.6593,2.6586,2.6584,2.6582,0,0,0,0,0,0,2.6695,2.6688,2.669,2.6675,2.6669,2.6662,2.6654,2.6655,2.6647,2.6648,2.6646,2.6644,2.6628,2.6624,2.6632,2.6605,2.6612,2.661,2.6608,2.6606,2.6604,2.6605,2.6637,0,0,0,0,0,2.6691,2.6683,2.6677,2.6664,2.6661,2.6658,2.6653,2.6652,2.6645,2.6642,2.6637,2.6629,2.6619,2.6612,2.6603,2.6585,2.6583,2.6577,2.6575,2.6574,2.6572,2.6562,2.6559,2.6588,2.6588,2.6588,0,0,2.6684,2.668,2.6674,2.6663,2.6658,2.6648,2.6656,2.6645,2.6638,2.664,2.6626,2.6622,2.6613,2.6597,2.6589,2.6593,2.6563,2.6572,2.6571,2.657,2.656,2.6557,2.6555,2.6587,2.6587,2.6587,0,0,2.6666,2.6662,2.6651,2.6646,2.6639,2.6637,2.6634,2.6627,2.6625,2.6611,2.6612,2.6603,2.6586,2.6579,2.6574,2.6554,2.6555,2.6551,2.6541,2.6531,2.6529,2.6527,2.6519,2.6516,2.6549,2.6549,2.6549,0,2.6658,2.6644,2.6645,2.6634,2.6629,2.6632,2.662,2.6615,2.6604,2.66,2.6604,2.6583,2.6577,2.6559,2.6554,2.655,2.6546,2.6551,2.6529,2.6527,2.6525,2.6518,2.6515,2.6548,2.6548,2.6548,2.6549,0,2.6634,2.6625,2.6616,2.6607,2.6601,2.6589,2.6587,2.6581,2.6581,2.6579,2.6564,2.6557,2.6546,2.6542,2.6542,2.6524,2.6526,2.653,2.6537,2.6522,2.6515,2.6512,2.6548,2.6548,2.6548,2.6548,0,0,2.661,2.6602,2.6599,2.6595,2.6587,2.6579,2.6568,2.6558,2.6552,2.6545,2.6535,2.6521,2.6524,2.6518,2.6517,2.6508,2.6492,2.6513,2.6513,2.6509,2.6471,2.6468,2.6465,2.6494,2.6493,2.6493,2.6472,0,2.6591,2.6572,2.6572,2.6554,2.6545,2.6548,2.6538,2.6532,2.6529,2.6521,2.6517,2.6507,2.6512,2.6509,2.6501,2.6496,2.6485,2.6498,2.6483,2.6483,2.6485,2.6462,2.6458,2.6439,2.6469,2.6469,2.6469,0,2.6566,2.6559,2.6541,2.6534,2.6531,2.6522,2.6513,2.6505,2.6497,2.6496,2.6489,2.649,2.6478,2.6486,2.6468,2.6477,2.6471,2.6468,2.6467,2.6465,2.6474,2.6458,2.6433,2.643,2.6464,2.6465,2.6465,0,2.655,2.6536,2.6523,2.6519,2.6512,2.6506,2.6502,2.6496,2.649,2.6481,2.6477,2.6468,2.6462,2.6454,2.6452,2.6458,2.6434,2.6442,2.6432,2.6432,2.6426,2.6426,2.6399,2.6423,2.6423,2.6423,2.6423,0,2.6528,2.6517,2.6516,2.6507,2.6494,2.6494,2.6481,2.6478,2.6472,2.6463,2.6465,2.6456,2.6454,2.6444,2.6442,2.6428,2.6425,2.6423,2.6423,2.6423,2.6423,2.6418,2.6419,2.6423,2.6423,2.6423,2.6423,0,2.6508,2.6507,2.6493,2.6487,2.6486,2.6476,2.6471,2.6463,2.6461,2.6449,2.6446,2.6442,2.6431,2.6428,2.6415,2.6413,2.6396,2.6397,2.6399,2.6398,2.6388,2.6389,2.6356,2.6351,2.638,2.6379,2.6379,0,2.6494,2.6485,2.6479,2.6473,2.647,2.6461,2.6455,2.6455,2.6448,2.644,2.6432,2.6422,2.6413,2.6395,2.639,2.638,2.638,2.637,2.6379,2.6379,2.6379,2.638,2.6379,2.6368,2.6367,2.6367,2.6367,0,2.6469,2.6469,2.6461,2.6453,2.6446,2.6439,2.6433,2.6428,2.6427,2.6419,2.6409,2.6402,2.6389,2.6378,2.6367,2.6363,2.6364,2.6364,2.6361,2.6361,2.6362,2.636,2.6393,2.6365,2.6365,2.6365,2.6365,2.6365,2.6451,2.6443,2.6438,2.6429,2.6424,2.6418,2.641,2.6407,2.6399,2.6388,2.6388,2.6376,2.6369,2.6356,2.6351,2.6341,2.6344,2.6339,2.6338,2.6337,2.6336,2.6364,2.6339,2.6339,2.6339,2.6339,2.6339,0,2.6425,2.6422,2.6414,2.6405,2.6398,2.6402,2.6395,2.6388,2.6378,2.6372,2.6363,2.6351,2.634,2.6335,2.6324,2.6317,2.6318,2.6315,2.6315,2.6314,2.6334,2.6337,2.6314,2.6314,2.6314,2.6314,2.6314,2.6315,2.6411,2.6398,2.6398,2.6382,2.6379,2.6368,2.6364,2.6358,2.6353,2.6339,2.6331,2.6328,2.6322,2.6311,2.6301,2.63,2.6296,2.6292,2.6291,2.631,2.6312,2.6314,2.6318,2.6291,2.6291,2.6271,2.6271,2.6271]}]]